TimeCEST,TemperatureF,Dew PointF,Humidity,Sea Level PressureIn,VisibilityMPH,Wind Direction,Wind SpeedMPH,Gust SpeedMPH,PrecipitationIn,Events,Conditions,WindDirDegrees,DateUTC
12:00 AM,62.6,59.0,88,30.24,-9999.0,Calm,Calm,-,N/A,,Clear,0,2011-10-03 22:00:00
12:30 AM,62.6,59.0,88,30.24,-9999.0,Calm,Calm,-,N/A,,Clear,0,2011-10-03 22:30:00
1:00 AM,60.8,59.0,94,30.24,-9999.0,Calm,Calm,-,N/A,,Clear,0,2011-10-03 23:00:00
1:30 AM,62.6,59.0,88,30.24,-9999.0,Calm,Calm,-,N/A,,Clear,0,2011-10-03 23:30:00
2:00 AM,60,57,88,30.25,7,Calm,Calm,,,,,,2011-10-04 00:00:00
2:00 AM,60.8,57.2,88,30.24,-9999.0,Calm,Calm,-,N/A,,Clear,0,2011-10-04 00:00:00
2:30 AM,60.8,57.2,88,30.24,-9999.0,Calm,Calm,-,N/A,,Clear,0,2011-10-04 00:30:00
3:00 AM,59.0,57.2,94,30.24,-9999.0,Calm,Calm,-,N/A,,Clear,0,2011-10-04 01:00:00
3:30 AM,60.8,57.2,88,30.21,-9999.0,Calm,Calm,-,N/A,,Clear,0,2011-10-04 01:30:00
4:00 AM,59.0,57.2,94,30.21,-9999.0,Calm,Calm,-,N/A,,Clear,0,2011-10-04 02:00:00
4:30 AM,57.2,55.4,94,30.21,-9999.0,Calm,Calm,-,N/A,,Clear,0,2011-10-04 02:30:00
5:00 AM,57.2,55.4,94,30.21,-9999.0,Calm,Calm,-,N/A,,Clear,0,2011-10-04 03:00:00
5:30 AM,59.0,57.2,94,30.21,-9999.0,Calm,Calm,-,N/A,,Clear,0,2011-10-04 03:30:00
6:00 AM,57.2,55.4,94,30.21,-9999.0,Calm,Calm,-,N/A,,Clear,0,2011-10-04 04:00:00
6:30 AM,57.2,55.4,94,30.21,5.6,Calm,Calm,-,N/A,,Partly Cloudy,0,2011-10-04 04:30:00
7:00 AM,57.2,55.4,94,30.21,5.6,Calm,Calm,-,N/A,,Partly Cloudy,0,2011-10-04 05:00:00
7:30 AM,57.2,55.4,94,30.21,-9999.0,Calm,Calm,-,N/A,,Clear,0,2011-10-04 05:30:00
8:00 AM,57,56,94,30.23,16,Calm,Calm,,,,Clear,,2011-10-04 06:00:00
8:00 AM,57.2,55.4,94,30.21,-9999.0,Calm,Calm,-,N/A,,Clear,0,2011-10-04 06:00:00
8:30 AM,59.0,59.0,100,30.24,6.2,Calm,Calm,-,N/A,,Partly Cloudy,0,2011-10-04 06:30:00
9:00 AM,60.8,60.8,100,30.24,6.2,Calm,Calm,-,N/A,,Partly Cloudy,0,2011-10-04 07:00:00
9:30 AM,64.4,62.6,94,30.24,6.2,Calm,Calm,-,N/A,,Partly Cloudy,0,2011-10-04 07:30:00
10:00 AM,69.8,62.6,78,30.24,6.2,Calm,Calm,-,N/A,,Partly Cloudy,0,2011-10-04 08:00:00
10:30 AM,73.4,62.6,69,30.24,6.2,Calm,Calm,-,N/A,,Partly Cloudy,0,2011-10-04 08:30:00
11:00 AM,77.0,60.8,57,30.24,-9999.0,Calm,Calm,-,N/A,,Clear,0,2011-10-04 09:00:00
11:30 AM,80.6,60.8,51,30.24,-9999.0,Calm,Calm,-,N/A,,Clear,0,2011-10-04 09:30:00
12:00 PM,82.4,53.6,37,30.24,-9999.0,Calm,Calm,-,N/A,,Clear,0,2011-10-04 10:00:00
12:30 PM,84.2,51.8,33,30.24,-9999.0,Variable,1.2,-,N/A,,Clear,0,2011-10-04 10:30:00
1:00 PM,84.2,51.8,33,30.24,-9999.0,NNE,4.6,-,N/A,,Clear,30,2011-10-04 11:00:00
1:30 PM,86.0,50.0,29,30.24,-9999.0,ENE,6.9,-,N/A,,Clear,70,2011-10-04 11:30:00
2:00 PM,83,62,39,30.23,19,SW,9.2,,,,Scattered Clouds,220,2011-10-04 12:00:00
2:00 PM,82.4,62.6,51,30.21,6.2,ENE,6.9,-,N/A,,Partly Cloudy,70,2011-10-04 12:00:00
2:30 PM,80.6,64.4,58,30.21,6.2,SSW,4.6,-,N/A,,Partly Cloudy,210,2011-10-04 12:30:00
3:00 PM,82.4,60.8,48,30.21,6.2,SSW,6.9,-,N/A,,Partly Cloudy,210,2011-10-04 13:00:00
3:30 PM,82.4,59.0,45,30.18,6.2,SW,8.1,-,N/A,,Partly Cloudy,220,2011-10-04 13:30:00
4:00 PM,82.4,59.0,45,30.18,6.2,SW,4.6,-,N/A,,Partly Cloudy,220,2011-10-04 14:00:00
4:30 PM,84.2,57.2,40,30.18,6.2,NE,10.4,-,N/A,,Partly Cloudy,50,2011-10-04 14:30:00
5:00 PM,84.2,51.8,33,30.18,6.2,NE,16.1,-,N/A,,Partly Cloudy,50,2011-10-04 15:00:00
5:30 PM,84.2,51.8,33,30.18,6.2,NE,12.7,-,N/A,,Partly Cloudy,50,2011-10-04 15:30:00
6:00 PM,82.4,48.2,30,30.18,6.2,NE,12.7,-,N/A,,Partly Cloudy,40,2011-10-04 16:00:00
6:30 PM,82.4,50.0,32,30.18,6.2,ENE,8.1,-,N/A,,Partly Cloudy,60,2011-10-04 16:30:00
7:00 PM,78.8,51.8,39,30.18,-9999.0,ENE,6.9,-,N/A,,Clear,60,2011-10-04 17:00:00
7:30 PM,77.0,53.6,44,30.18,-9999.0,ENE,5.8,-,N/A,,Clear,60,2011-10-04 17:30:00
8:00 PM,74,58,49,30.21,12,East,9.2,,,,Clear,80,2011-10-04 18:00:00
8:00 PM,75.2,59.0,57,30.21,-9999.0,ENE,4.6,-,N/A,,Clear,70,2011-10-04 18:00:00
8:30 PM,71.6,59.0,64,30.21,-9999.0,ENE,6.9,-,N/A,,Clear,70,2011-10-04 18:30:00
9:00 PM,73.4,60.8,65,30.21,-9999.0,ENE,2.3,-,N/A,,Clear,60,2011-10-04 19:00:00
9:30 PM,69.8,59.0,68,30.21,-9999.0,Calm,Calm,-,N/A,,Clear,0,2011-10-04 19:30:00
10:00 PM,69.8,60.8,73,30.21,-9999.0,Calm,Calm,-,N/A,,Clear,0,2011-10-04 20:00:00
10:30 PM,66.2,59.0,78,30.21,-9999.0,Calm,Calm,-,N/A,,Clear,0,2011-10-04 20:30:00
11:00 PM,66.2,60.8,83,30.21,-9999.0,Calm,Calm,-,N/A,,Clear,0,2011-10-04 21:00:00
11:30 PM,62.6,57.2,82,30.21,-9999.0,Calm,Calm,-,N/A,,Clear,0,2011-10-04 21:30:00